Location: Bonaustraße
(48.4603°N, 11.9280°E)
Time: 21:21:08
(UTC+02:00)

AO-92 - Pass Details

Date: 07 August 2021
Orbit: 484 x 494 km, 97.4° (Epoch: 17 September)

Event Time Altitude Azimuth Distance (km) Brightness Sun altitude
Exits shadow 00:03:57 19° 258° (WSW) 1,230 ? -23.0°
Maximum altitude 00:04:21 19° 267° (W) 1,217 ? -23.1°
Drops below altitude 10° 00:06:58 10° 314° (NW) 1,677 ? -23.2°
Sets 00:09:31 0° 333° (NNW) 2,565 ? -23.3°
